Location: Guferjoch
(46.7462°N, 8.4506°E)
Time: 13:16:17
(UTC+00:00)

Cosmos 1980 Rocket - Pass Details

Date: 14 July 2020
Orbit: 828 x 851 km, 71.0° (Epoch: 07 August)

Event Time Altitude Azimuth Distance (km) Brightness Sun altitude
Rises 01:40:09 0° 334° (NNW) 3,429 5.9 -15.8°
Reaches altitude 10° 01:42:38 10° 337° (NNW) 2,489 5.1 -15.5°
Maximum altitude 01:48:21 68° 61° (ENE) 917 2.6 -15.0°
Drops below altitude 10° 01:53:59 10° 144° (SE) 2,465 4.4 -14.5°
Sets 01:56:26 0° 147° (SSE) 3,393 5.1 -14.3°
